Powrót do katalogu

STARLINK-32099

AktywnyŁącznośćVLEO
NORAD 59697·PAYLOAD·🇺🇸 United States

Wystrzelony May 8, 2024 z Cape Canaveral Space Force Station

Loading…

Następne Przeloty (najbliższe 24 godziny)

TLE

ŚwieżeSource: CelesTrak SupGP

Epoka: Sep 14, 2026, 22:11 UTC

1 59697C 24086R   26257.92479167  .00054158  00000+0  19618-2 0  2579
2 59697  43.0001  70.9847 0001461 271.3058 163.3470 15.27547665    12

Śledź STARLINK-32099 w czasie rzeczywistym z AllMySat

Download on the App Store